SCP
0 0 0 0 0 0 0 0 0 0 1 1 1 1 1 2 2 1 1 1 1 2 4 5 6 6 5 5 4 5 4 4 4 4 3 2 2 2 2 2 2 2 2 2 2 1 1 1 1
0 0 0 0 0 0 0 0 0 1 1 1 1 1 2 2 1 1 1 1 1 3 4 5 6 6 5 4 4 4 4 4 4 4 3 3 2 2 2 3 2 2 2 2 2 2 1 1 1
0 0 0 0 0 0 0 0 1 1 1 1 1 1 2 1 1 1 1 1 2 3 4 5 5 5 5 4 4 4 4 4 4 4 4 4 3 3 3 3 3 3 2 2 2 2 2 2 2
0 0 0 0 0 0 0 0 1 1 1 1 1 1 1 1 1 1 1 1 2 2 3 4 5 5 5 4 4 4 4 4 4 5 5 5 5 4 3 3 3 3 3 2 2 2 2 2 2
0 0 0 0 0 0 0 0 0 1 1 1 1 1 1 1 2 2 2 3 3 3 3 4 5 5 5 4 4 4 4 4 4 5 6 6 6 5 4 3 3 3 3 3 3 3 2 2 2
0 0 0 0 0 0 0 0 0 0 1 1 1 1 1 2 3 4 4 4 4 3 3 4 5 5 5 5 4 4 4 4 4 5 5 6 5 5 4 3 3 3 3 3 3 3 3 3 2
0 0 0 0 0 0 0 0 0 1 1 1 1 1 2 3 4 5 4 4 3 3 3 3 4 4 4 5 5 4 4 4 4 4 4 4 4 3 3 3 3 3 3 3 3 3 3 3 2
0 0 0 0 0 0 0 0 1 1 1 1 1 2 3 4 4 4 4 3 3 2 2 3 3 4 4 4 4 4 4 3 3 3 3 3 3 2 2 3 3 3 3 2 2 3 3 3 3
0 0 0 0 0 0 0 0 1 1 1 2 2 3 4 4 4 4 4 4 4 3 3 3 3 4 4 4 4 4 3 3 3 3 2 2 2 2 2 2 2 2 2 2 2 2 2 3 3
0 0 0 0 0 0 0 1 1 1 2 2 3 3 4 4 4 4 4 5 4 3 3 3 3 3 4 4 4 4 3 3 3 2 2 2 2 2 2 2 2 2 2 2 2 2 2 2 2
0 0 0 0 0 0 0 1 1 2 2 3 3 3 3 4 4 4 4 4 4 4 3 3 3 3 4 4 4 4 4 3 3 3 3 3 3 2 2 3 3 2 2 2 2 2 2 2 2
0 0 0 0 0 0 1 1 1 2 2 3 3 3 3 3 3 3 2 3 3 3 3 3 3 3 3 4 4 4 4 4 4 4 4 4 4 3 3 3 3 3 3 3 2 3 3 2 2
0 0 0 0 0 1 1 1 2 2 2 2 3 3 3 2 2 2 2 2 2 2 3 3 3 3 3 3 4 4 5 5 5 5 4 4 5 5 4 4 3 4 4 3 3 3 3 2 2
0 0 0 0 0 1 1 1 2 2 2 2 2 2 2 2 2 2 2 2 2 2 2 2 2 2 2 3 4 5 5 6 6 5 5 5 5 5 5 4 3 3 3 3 3 3 3 2 2
0 0 0 0 0 1 1 1 1 1 1 2 2 3 3 2 2 2 2 1 2 2 2 2 2 2 2 3 4 4 5 5 6 6 5 5 5 5 6 5 4 3 3 3 3 3 3 2 2
0 0 0 0 0 1 1 1 1 1 1 2 3 3 3 2 2 2 2 2 2 2 2 2 2 2 2 3 3 4 5 5 6 6 6 5 4 5 5 5 4 3 3 3 3 3 2 2 2
0 0 0 0 0 0 0 0 0 1 1 2 3 3 3 3 2 2 2 2 2 2 2 3 3 3 3 3 3 4 4 5 5 6 6 5 4 5 5 5 4 3 3 3 3 3 3 2 2
0 0 0 0 0 0 0 0 0 1 1 2 3 4 3 3 2 2 2 2 1 2 2 3 4 5 4 3 3 4 4 5 5 5 5 5 5 4 5 4 4 3 3 3 2 2 3 3 3
0 0 0 0 0 0 1 1 1 1 2 2 3 4 3 2 2 2 2 2 2 2 3 4 5 5 3 3 3 3 4 5 5 5 5 5 5 5 4 4 4 3 3 3 2 2 3 3 4
0 0 0 0 0 1 1 1 1 1 2 3 3 4 3 2 2 2 2 2 2 2 3 4 4 4 4 3 3 3 4 4 4 5 5 5 5 4 4 4 4 4 3 3 2 2 3 3 4
0 0 0 0 0 1 1 1 1 2 2 3 3 3 3 2 2 1 1 1 2 2 2 2 3 4 4 3 3 3 3 3 4 4 4 4 4 4 4 4 4 4 3 3 2 2 3 3 4
0 0 0 0 0 0 0 1 1 2 2 2 2 2 2 2 1 1 1 1 2 2 2 1 2 3 3 3 3 3 3 3 4 4 4 4 4 4 4 4 4 3 3 2 2 2 3 3 4
0 0 0 0 0 0 0 1 1 2 2 2 2 2 2 2 2 2 2 2 2 2 1 1 2 2 2 2 2 3 3 3 4 4 4 4 3 3 3 3 3 3 2 2 2 3 3 3 4
0 0 0 0 0 0 0 1 2 2 2 2 1 1 1 2 3 3 3 3 3 2 2 2 2 2 2 2 2 3 3 3 4 4 4 4 3 3 3 2 2 2 2 2 2 2 2 3 3
0 0 0 0 0 0 0 1 2 2 2 1 1 1 2 3 4 4 4 4 4 3 2 2 2 2 2 2 2 2 3 3 3 4 4 3 3 3 2 2 2 2 2 2 2 2 2 2 2
0 0 0 0 0 0 1 1 2 2 1 1 1 1 2 3 5 5 5 4 4 3 3 3 3 3 2 2 2 2 3 3 3 4 4 3 3 3 2 2 2 2 2 2 2 1 2 2 2
0 0 0 0 0 0 1 1 1 1 1 1 1 1 2 4 5 5 4 4 3 3 3 3 3 3 2 2 1 2 3 4 4 4 4 4 3 3 2 2 2 2 2 2 2 1 2 2 2
0 0 0 0 0 0 0 1 1 1 1 1 2 2 2 4 6 6 4 3 3 3 3 2 2 2 2 2 1 1 2 4 5 5 4 4 4 3 2 2 2 3 2 2 2 2 2 2 2
0 0 0 0 0 0 0 1 1 1 1 2 2 2 3 4 6 6 5 4 3 3 2 2 2 2 2 1 1 1 2 4 5 5 4 4 4 3 2 3 3 3 3 3 2 2 2 2 2
0 0 0 0 0 0 0 1 1 1 1 2 2 3 3 4 5 5 4 3 3 2 2 2 2 2 1 1 1 1 2 3 4 5 4 4 3 3 3 3 3 3 3 3 2 2 2 2 2
Wind_Speed
9 8 6 6 7 4 3 4 3 4 3 5 4 3 4 6 6 6 5 5 5 9 12 13 10 10 10 10 10 10 9 10 10 11 11 11 11 11 11 10 10 10 9 9 10 9 9 9 8
6 5 7 7 6 3 4 3 4 5 4 2 2 1 2 5 6 5 4 5 6 9 11 12 12 10 10 10 10 10 10 10 10 10 11 11 10 10 10 10 9 9 9 9 9 9 9 8 8
6 6 6 5 2 1 4 5 5 4 3 1 1 3 3 5 4 3 4 4 7 9 10 12 12 10 9 9 9 10 10 10 10 10 10 10 9 9 9 10 10 9 9 9 9 9 8 8 8
5 6 6 4 2 3 4 4 3 1 2 2 1 3 4 6 4 4 5 5 7 9 10 12 11 10 9 9 9 9 9 9 9 9 9 9 9 9 9 9 9 8 8 9 9 9 8 8 8
6 6 6 4 3 3 2 3 2 2 2 2 1 3 5 5 5 5 5 5 6 7 8 11 9 8 8 9 8 7 7 8 8 8 8 7 7 8 8 8 8 8 8 8 8 8 8 8 8
6 5 4 3 4 3 2 2 2 2 2 2 1 2 5 6 4 4 4 4 5 6 7 10 10 8 8 8 8 7 7 6 6 6 6 6 6 6 6 7 7 7 7 8 8 8 7 7 8
5 3 1 1 2 3 3 3 3 3 2 3 3 2 5 6 5 4 4 4 4 5 5 7 9 8 8 7 6 6 6 6 6 5 5 5 6 6 6 6 6 6 7 7 8 8 8 8 8
5 4 3 1 1 3 3 2 3 4 4 4 3 2 3 4 4 4 4 4 4 4 4 5 6 6 7 8 7 6 6 5 5 5 6 6 7 7 7 7 6 6 7 7 8 9 9 9 9
7 6 2 1 1 3 3 2 3 2 3 3 4 5 5 5 5 5 5 4 4 3 3 4 4 4 4 5 7 7 7 7 6 7 7 7 6 7 7 6 5 6 7 7 8 9 9 10 11
6 3 2 3 3 3 3 2 2 1 2 2 3 4 4 4 5 5 4 4 3 3 2 2 3 4 4 3 4 4 5 5 5 4 5 5 3 3 3 5 5 5 6 8 9 9 10 11 7
3 2 2 2 3 2 2 3 2 1 1 3 1 2 4 4 4 3 3 3 2 2 2 1 2 2 3 2 2 2 2 3 4 4 4 3 3 3 3 3 5 5 7 6 7 10 7 6 4
2 0 1 1 2 0 1 2 3 3 4 4 3 3 4 4 3 2 2 2 2 1 1 0 1 2 2 1 1 2 2 2 2 3 3 3 2 3 2 2 2 3 3 3 4 4 6 5 6
3 2 2 1 1 1 2 2 3 4 3 4 4 5 4 3 3 2 2 2 1 1 1 1 1 1 2 2 1 1 1 2 2 2 2 2 3 3 3 2 2 3 3 4 4 4 5 5 6
2 2 2 1 2 3 3 4 2 3 3 4 4 5 4 4 3 3 2 1 1 1 1 1 1 2 2 2 2 2 2 2 2 2 2 3 3 3 3 3 3 3 3 3 3 4 4 4 4
4 5 4 3 3 2 3 2 2 3 3 4 5 5 5 4 3 2 1 1 1 1 1 1 2 2 3 3 3 3 2 2 2 2 2 3 4 3 4 3 3 3 3 3 4 4 4 4 5
7 8 6 4 3 3 6 1 4 3 3 4 5 5 4 4 3 2 1 1 1 2 2 2 2 2 3 3 3 2 2 2 2 2 2 3 4 4 4 3 3 3 3 3 3 4 4 4 5
8 6 4 4 3 3 4 1 5 3 3 4 4 4 3 3 3 2 2 2 2 2 2 2 2 2 3 3 3 3 2 2 2 2 2 3 4 4 4 3 3 4 4 4 4 3 4 4 4
4 5 4 2 2 4 3 2 4 3 2 2 3 3 2 3 3 3 3 2 2 2 2 2 2 2 2 2 2 2 2 2 2 2 2 3 3 4 5 4 4 4 3 4 3 4 4 4 4
5 6 4 1 1 3 3 2 3 2 2 1 2 2 2 2 3 3 3 3 3 2 1 1 1 1 1 1 2 2 2 2 2 2 2 3 3 4 5 4 4 4 4 4 5 5 5 4 3
7 7 4 3 3 3 3 3 2 3 2 1 1 1 1 2 2 3 3 3 3 3 2 1 1 1 1 1 2 2 3 3 2 2 2 3 4 4 4 5 5 5 4 5 5 4 4 4 4
7 7 5 4 4 5 5 6 5 5 3 1 0 1 2 2 2 2 2 3 3 3 3 2 2 1 2 2 2 2 2 3 2 3 3 3 4 4 5 5 5 5 5 4 4 5 6 5 4
5 3 5 6 7 5 6 5 5 5 4 1 1 1 1 1 2 2 3 3 3 3 2 2 2 2 2 3 3 3 3 3 3 3 2 3 3 4 4 5 5 5 4 4 5 5 5 5 5
2 2 6 8 8 6 6 6 3 5 2 1 1 1 1 2 2 2 3 3 3 3 2 2 2 2 2 3 3 4 3 3 2 2 2 3 2 3 3 4 4 4 4 4 4 4 5 5 5
3 5 6 8 8 7 3 6 1 2 1 2 1 2 2 2 2 2 3 3 3 3 3 2 2 2 2 3 3 3 3 3 3 3 2 2 2 2 2 3 3 4 4 4 5 5 5 5 5
6 6 6 7 7 2 2 5 2 3 2 2 2 2 2 2 2 2 3 4 4 4 3 2 2 2 2 2 2 2 2 2 2 2 2 2 2 2 2 3 3 3 4 4 4 4 4 5 6
5 8 6 5 4 1 5 3 4 4 2 2 2 2 2 1 2 2 3 3 4 4 3 3 2 2 3 2 2 2 2 2 1 2 2 2 2 2 2 2 3 3 3 4 4 4 5 4 5
4 4 5 7 6 5 3 2 4 4 1 1 2 2 2 2 2 2 3 3 4 3 3 3 2 2 2 2 2 1 1 2 2 2 2 1 2 2 2 2 2 3 3 4 4 4 5 4 5
4 2 4 6 5 5 3 3 1 1 1 1 1 1 2 2 2 2 3 3 3 3 3 3 3 2 2 2 2 1 1 1 1 2 2 2 1 1 2 1 2 3 3 3 4 5 4 5 5
4 4 5 5 5 7 4 1 5 3 2 2 1 1 2 2 2 2 2 2 2 2 3 2 2 2 2 2 2 2 1 1 2 2 2 1 1 1 1 1 2 3 3 3 4 4 4 5 4
4 4 5 6 4 6 6 2 6 3 2 2 2 1 1 1 2 2 2 2 3 3 3 3 3 3 2 2 2 2 1 1 2 2 2 2 1 1 1 2 2 2 2 3 4 5 5 5 5
Wind_Direction
201 204 222 234 234 212 107 79 49 39 39 24 7 355 15 12 357 31 63 99 124 136 138 147 147 150 152 153 154 153 152 153 155 157 158 159 160 160 158 158 160 163 164 165 166 166 166 165 164
201 207 228 238 250 177 109 77 58 34 30 5 31 14 28 48 34 52 83 101 135 138 145 150 145 152 154 155 157 156 155 157 157 158 160 162 162 162 163 164 164 168 171 170 171 173 173 173 171
207 231 251 243 255 20 84 59 42 46 51 354 42 39 28 33 44 52 77 124 142 142 147 140 151 155 156 155 155 158 157 159 160 162 164 164 165 166 168 171 171 172 176 178 177 179 179 179 178
220 219 233 238 145 68 43 42 19 39 67 38 46 89 80 43 28 55 103 135 141 146 150 140 155 158 156 154 153 156 157 158 163 166 168 168 170 173 175 177 178 178 180 184 186 185 187 187 186
239 242 217 185 124 84 54 10 337 355 51 65 64 94 84 60 50 77 107 131 143 144 146 141 150 153 155 154 155 156 156 155 159 163 167 172 176 179 181 182 184 186 187 189 192 193 194 196 197
230 238 223 161 120 109 76 14 335 353 60 69 54 82 77 70 68 85 108 130 136 139 144 136 147 152 155 158 158 159 161 160 160 160 164 168 173 180 185 188 191 195 194 194 198 200 203 204 204
261 244 222 138 120 114 56 17 359 1 39 45 4 53 96 76 75 98 111 120 127 135 138 145 154 158 161 157 154 160 160 160 162 162 165 171 176 183 188 194 199 203 202 201 205 206 210 212 209
278 254 193 154 143 80 67 58 33 359 40 45 2 9 82 90 102 117 117 114 116 130 139 148 157 161 168 161 155 159 160 159 165 168 175 182 185 190 196 200 196 208 210 212 214 214 214 217 216
252 242 171 81 5 53 64 73 64 52 70 68 45 36 58 109 133 134 129 123 119 125 144 151 162 164 174 166 155 167 170 168 179 177 180 199 205 199 196 200 193 215 220 223 222 217 217 217 211
250 252 60 36 5 25 57 49 60 106 100 81 74 66 91 138 147 146 136 133 129 126 148 157 176 171 179 175 161 182 187 175 194 188 194 208 213 224 224 154 192 221 227 228 225 221 219 226 214
253 315 50 52 29 9 67 63 54 356 23 9 19 106 129 150 146 142 127 118 118 130 148 167 189 191 191 175 174 190 201 182 192 189 204 218 227 216 221 199 188 208 220 226 209 213 219 220 223
204 356 323 60 44 15 71 91 82 34 20 26 48 95 126 134 130 117 108 108 114 129 161 247 228 182 189 183 177 208 210 199 202 180 214 218 228 234 228 231 229 222 219 228 234 223 217 222 229
201 166 123 131 116 108 128 105 93 66 45 55 71 94 116 115 105 97 86 66 51 7 263 242 206 169 164 175 223 208 231 225 201 205 205 238 242 240 235 237 243 246 232 217 228 231 221 227 224
159 170 179 203 178 148 138 103 90 67 74 87 83 90 96 98 89 83 85 58 333 270 245 217 200 184 182 191 207 215 225 226 228 210 212 235 249 252 253 243 241 248 248 247 241 233 226 223 225
189 190 186 182 184 170 192 122 77 84 109 106 90 85 79 74 71 61 58 14 296 253 229 219 200 186 194 208 219 219 223 229 227 207 214 232 244 245 249 253 246 254 259 247 241 233 227 222 218
209 216 205 159 191 189 241 188 87 99 135 118 105 94 87 72 54 44 44 344 291 264 227 228 222 197 195 202 228 233 234 238 241 228 221 235 249 252 255 259 258 258 252 247 240 234 231 227 227
210 230 221 159 179 197 235 187 101 118 131 124 117 106 95 77 51 31 11 2 334 296 258 239 235 224 221 212 221 230 229 237 243 244 247 252 253 252 255 259 258 254 250 246 249 237 238 232 232
244 247 234 205 152 216 220 169 126 151 157 133 115 102 87 59 35 18 2 351 336 312 281 258 237 227 237 229 225 231 227 230 240 249 246 250 252 254 255 247 240 246 248 248 245 245 241 242 231
266 256 240 183 158 224 201 181 148 159 185 150 101 86 63 46 32 13 359 354 344 327 316 309 282 197 229 234 248 249 248 251 251 249 242 245 256 256 252 257 241 238 239 249 249 248 238 236 232
245 241 220 173 162 234 199 206 173 161 155 95 73 75 51 40 36 15 357 354 355 342 329 308 304 234 239 236 255 258 276 270 263 263 245 238 236 248 246 249 251 241 236 235 241 243 251 237 225
237 249 233 206 186 210 218 204 176 162 157 140 49 36 54 29 11 355 345 343 344 343 337 326 318 295 268 249 242 249 250 254 251 252 246 242 237 241 250 251 253 247 243 232 231 234 240 244 234
245 247 239 214 219 214 233 256 162 171 169 178 304 352 22 9 352 338 339 346 347 339 340 331 323 311 287 266 256 258 260 266 272 267 258 250 244 251 252 249 247 249 248 235 234 226 233 239 242
285 227 229 231 240 245 219 257 157 164 205 212 353 353 357 351 346 341 349 351 352 348 352 356 350 327 303 280 266 258 269 279 276 272 257 259 248 246 250 250 248 246 244 239 243 240 237 238 245
177 200 210 225 233 238 227 259 197 133 350 351 16 17 1 356 348 353 1 358 357 355 357 355 4 340 312 287 287 281 287 293 296 291 275 260 253 247 250 248 249 246 244 240 241 241 236 242 245
217 236 229 217 220 213 142 250 63 77 45 359 357 8 11 9 7 359 359 355 354 358 360 4 11 340 322 313 309 299 292 281 284 290 278 278 272 261 255 266 254 251 246 245 248 243 245 243 242
224 259 284 289 290 221 191 240 92 104 77 35 15 12 25 21 20 5 6 353 350 359 359 5 9 347 343 341 333 320 293 288 302 312 300 285 291 298 285 269 270 262 252 245 242 246 241 242 245
229 248 301 282 270 258 196 163 154 152 130 30 21 5 5 10 10 8 15 359 352 359 5 6 5 348 345 345 337 329 337 326 328 312 293 309 321 300 287 280 283 275 262 253 248 246 247 244 242
299 279 252 268 286 278 232 222 161 148 326 354 351 337 344 0 3 16 21 8 4 12 19 13 4 2 357 340 338 15 9 350 339 330 355 346 326 310 283 287 294 283 271 258 258 250 242 241 242
203 218 259 272 290 289 283 54 63 78 27 346 355 331 335 0 10 24 29 31 32 30 34 28 19 21 15 5 9 16 13 4 348 354 1 359 342 316 282 277 276 278 271 264 259 263 251 242 241
265 264 251 264 256 263 284 63 96 86 45 356 358 357 1 7 16 30 35 41 37 30 27 28 18 20 19 18 18 18 14 10 351 355 353 352 336 301 281 279 280 287 281 270 260 261 255 248 243